Location: Kerb�bon
(47.7970°N, 3.3487°W)
Time: 12:14:34
(UTC+00:00)

Cosmos 1933 Rocket - Visible Passes

Search period start: 21 September 2021 00:00
Search period end: 01 October 2021 00:00
Orbit: 606 x 631 km, 82.5° (Epoch: 20 September)

Date Brightness Start Highest point End Pass type
(mag) Time Alt. Az. Time Alt. Az. Time Alt. Az.
21 Sep 6.2 03:31:16 10° NNE 03:34:36 21° ENE 03:37:56 10° ESE visible
21 Sep 3.9 05:08:30 10° NNW 05:12:40 44° W 05:16:52 10° SSW visible
21 Sep 7.3 19:25:12 10° WNW 19:25:43 10° WNW 19:26:13 10° NW visible
22 Sep 5.3 03:47:52 10° N 03:51:54 34° ENE 03:55:56 10° SE visible
22 Sep 4.6 05:25:59 10° NNW 05:29:37 25° W 05:33:14 10° SW visible
23 Sep 4.1 04:04:44 10° N 04:09:07 60° ENE 04:13:28 10° SSE visible
24 Sep 6.7 02:45:43 10° NE 02:47:47 13° ENE 02:49:51 10° E visible
24 Sep 3.4 04:21:48 10° NNW 04:26:13 77° W 04:30:38 10° S visible
24 Sep 6.6 18:36:01 10° WSW 18:38:50 17° WNW 18:41:40 10° NNW visible
25 Sep 6.0 03:01:47 10° NNE 03:05:11 21° ENE 03:08:34 10° ESE visible
25 Sep 3.9 04:39:04 10° NNW 04:43:14 43° W 04:47:25 10° SSW visible
26 Sep 5.1 03:18:25 10° N 03:22:29 35° ENE 03:26:33 10° SE visible
26 Sep 4.6 04:56:34 10° NNW 05:00:10 25° W 05:03:47 10° SW visible
27 Sep 4.0 03:35:18 10° N 03:39:41 61° ENE 03:43:02 17° SSE visible
27 Sep 5.2 05:14:33 10° NW 05:17:01 15° W 05:19:28 10° WSW visible
28 Sep 6.5 02:16:12 10° NE 02:18:22 13° ENE 02:20:25 10° E visible
28 Sep 3.4 03:52:22 10° NNW 03:56:48 75° W 03:57:25 62° SSW visible
29 Sep 5.9 02:32:19 10° NNE 02:35:45 22° ENE 02:35:45 22° ENE visible
29 Sep 4.3 04:09:38 10° NNW 04:12:47 36° WNW 04:12:47 36° WNW visible
30 Sep 5.5 02:48:57 10° N 02:51:31 28° NNE 02:51:31 28° NNE visible
30 Sep 5.3 04:27:09 10° NW 04:28:35 17° NW 04:28:35 17° NW visible
